Location: Nitra
(0.0000°N, 18.0833°E)
Time: 00:37:19
(UTC+02:00)

XW-2B - Visible Passes

Search period start: 31 May 2024 00:00
Search period end: 10 June 2024 00:00
Orbit: 419 x 427 km, 97.5° (Epoch: 30 May)

Date Brightness Start Highest point End Pass type
(mag) Time Alt. Az. Time Alt. Az. Time Alt. Az.
31 May ? 20:04:16 10° SSW 20:06:47 21° WSW 20:09:18 10° NW visible
01 Jun ? 19:20:33 10° SSE 19:23:40 50° E 19:26:47 10° N visible
02 Jun ? 20:10:13 10° SW 20:12:25 17° WSW 20:14:37 10° WNW visible
03 Jun ? 19:25:59 10° SSE 19:29:11 65° ENE 19:32:21 10° N visible
04 Jun ? 20:15:58 10° SW 20:17:47 14° WSW 20:19:35 10° WNW visible
05 Jun ? 19:31:11 10° SSE 19:34:24 83° E 19:37:35 10° N visible
06 Jun ? 20:21:36 10° SW 20:22:51 12° WSW 20:24:07 10° WNW visible
07 Jun ? 19:36:08 10° S 19:39:20 79° WSW 19:42:32 10° NNW visible
09 Jun ? 19:40:49 10° S 19:44:00 63° W 19:47:10 10° NNW visible
